Weather History for KEET - February, 2013

Change the Weather History Date:

Tuesday, February 19, 2013

  Actual Average Record
Temperature  
Mean Temperature 49 °F 49 °F  
Max Temperature 59 °F 60 °F 80 °F (1956)
Min Temperature 39 °F 39 °F 12 °F (1958)
Degree Days  
Heating Degree Days 16 16  
Month to date heating degree days 332 334  
Since 1 July heating degree days 1679 1998  
Moisture  
Dew Point 40 °F    
Average Humidity 60    
Maximum Humidity 93    
Minimum Humidity 26    
Precipitation  
Precipitation 0.42 in 0.20 in 1.63 in (1961)
Month to date precipitation 4.68 3.91  
Year to date precipitation 12.20 9.24  
Snow  
Snow 0.00 in - - ()
Month to date snowfall 0.0  
Since 1 July snowfall 0.9  
Snow Depth 0.00 in    
Sea Level Pressure  
Sea Level Pressure 30.08 in    
Wind  
Wind Speed 7 mph (NW)    
Max Wind Speed 20 mph    
Max Gust Speed 28 mph    
Visibility 7 miles    
Events Rain    
T = Trace of Precipitation, MM = Missing Value Source: NWS Daily Summary

Daily Weather History Graph

Daily Weather History Graph

Search for Another Location

Airport or City:

Trip Planner

Search our weather history database for the weather conditions in past years. The results will help you decide how hot, cold, wet, or windy it might be!

Date:

Astronomy

Feb. 19, 2013 Rise Set
Actual Time 6:26 AM CST 5:35 PM CST
Civil Twilight 6:01 AM CST 6:01 PM CST
Nautical Twilight 5:32 AM CST 6:30 PM CST
Astronomical Twilight 5:03 AM CST 6:58 PM CST
Moon 12:16 PM CST (2/19) 1:48 AM CST (2/19)
Length of Visible Light 11h 59m
Length of Day
11h 09m
Waxing Gibbous, 67% of the Moon is Illuminated
Feb 19
Waxing Gibbous
Feb 25
Full
Mar 4
Last Quarter
Mar 11
New
Mar 19
First Quarter

Hourly Weather History & Observations

Time (CST) Temp. Windchill Dew Point Humidity Pressure Visibility Wind Dir Wind Speed Gust Speed Precip Events Conditions
12:53 AM 51.1 °F - 43.0 °F 74% 29.99 in 9.0 mi South 11.5 mph 23.0 mph 0.01 in Rain Light Rain
1:34 AM 50.0 °F - 44.6 °F 82% 29.98 in 10.0 mi South 8.1 mph 19.6 mph 0.02 in   Overcast
1:53 AM 48.0 °F - 45.0 °F 89% 30.02 in 2.5 mi NW 12.7 mph 16.1 mph 0.09 in Rain Heavy Rain
2:11 AM 48.2 °F - 46.4 °F 93% 30.02 in 1.8 mi NNW 8.1 mph - 0.15 in Rain Heavy Rain
2:21 AM 48.2 °F - 46.4 °F 93% 30.01 in 2.5 mi North 3.5 mph - 0.19 in Rain Rain
2:32 AM 48.2 °F - 46.4 °F 93% 30.02 in 3.0 mi Calm Calm - 0.22 in Rain Rain
2:40 AM 48.2 °F - 46.4 °F 93% 30.02 in 2.5 mi NNW 4.6 mph - 0.24 in Rain Rain
2:48 AM 48.2 °F - 46.4 °F 93% 30.02 in 2.5 mi Variable 3.5 mph - 0.26 in Rain Rain
2:53 AM 48.0 °F - 46.9 °F 96% 30.03 in 3.0 mi Calm Calm - 0.28 in Rain Rain
3:19 AM 48.2 °F - 46.4 °F 93% 30.02 in 5.0 mi Calm Calm - 0.03 in Rain Light Rain
3:26 AM 48.2 °F - 46.4 °F 93% 30.02 in 5.0 mi Calm Calm - 0.03 in Rain Light Rain
3:53 AM 48.0 °F - 46.9 °F 96% 30.00 in 7.0 mi Calm Calm - 0.04 in   Overcast
4:40 AM 48.2 °F - 46.4 °F 93% 29.99 in 9.0 mi Calm Calm - 0.00 in   Overcast
4:53 AM 48.0 °F - 46.0 °F 93% 29.99 in 9.0 mi Calm Calm - 0.00 in   Overcast
5:53 AM 48.0 °F - 46.0 °F 93% 30.01 in 9.0 mi Calm Calm - N/A   Overcast
6:53 AM 48.0 °F - 46.0 °F 93% 30.03 in 6.0 mi Calm Calm - N/A   Overcast
7:46 AM 48.2 °F - 46.4 °F 93% 30.07 in 5.0 mi Calm Calm - N/A   Overcast
7:53 AM 48.0 °F - 46.9 °F 96% 30.07 in 6.0 mi West 3.5 mph - N/A   Overcast
8:05 AM 48.2 °F - 46.4 °F 93% 30.08 in 5.0 mi WNW 3.5 mph - N/A   Overcast
8:19 AM 50.0 °F - 48.2 °F 94% 30.09 in 7.0 mi WNW 5.8 mph - N/A   Overcast
8:53 AM 50.0 °F - 48.0 °F 93% 30.09 in 7.0 mi NW 12.7 mph - N/A   Overcast
9:08 AM 50.0 °F - 48.2 °F 94% 30.10 in 9.0 mi NW 11.5 mph 18.4 mph N/A   Mostly Cloudy
9:23 AM 50.0 °F - 46.4 °F 87% 30.10 in 10.0 mi NW 11.5 mph 21.9 mph N/A   Mostly Cloudy
9:44 AM 51.8 °F - 44.6 °F 76% 30.12 in 10.0 mi NNW 15.0 mph 26.5 mph N/A   Scattered Clouds
9:53 AM 51.1 °F - 44.1 °F 77% 30.13 in 10.0 mi NW 18.4 mph 24.2 mph N/A   Scattered Clouds
12:53 PM 55.9 °F - 30.9 °F 39% 30.14 in 10.0 mi WNW 13.8 mph 19.6 mph N/A   Clear
1:53 PM 57.9 °F - 30.9 °F 36% 30.12 in 10.0 mi NW 10.4 mph 18.4 mph N/A   Clear
2:53 PM 57.9 °F - 26.1 °F 30% 30.12 in 10.0 mi NW 13.8 mph 19.6 mph N/A   Clear
3:53 PM 57.0 °F - 25.0 °F 29% 30.13 in 10.0 mi NW 12.7 mph 21.9 mph N/A   Clear
4:53 PM 55.0 °F - 21.0 °F 27% 30.15 in 10.0 mi WNW 13.8 mph 19.6 mph N/A   Clear
6:53 PM 48.9 °F - 21.9 °F 35% 30.18 in 10.0 mi WNW 4.6 mph - N/A   Clear
7:53 PM 46.0 °F 43.9 °F 24.1 °F 42% 30.19 in 10.0 mi NW 4.6 mph - N/A   Clear
8:53 PM 44.1 °F 41.5 °F 21.9 °F 42% 30.21 in 10.0 mi NNW 4.6 mph - N/A   Clear
9:53 PM 42.1 °F 40.2 °F 21.9 °F 45% 30.23 in 10.0 mi NW 3.5 mph - N/A   Clear
10:53 PM 39.9 °F 37.8 °F 21.9 °F 49% 30.24 in 10.0 mi NW 3.5 mph - N/A   Clear
11:53 PM 39.0 °F - 23.0 °F 53% 30.25 in 10.0 mi Calm Calm - N/A   Clear